Regional Weather Roundup
Issued by NWS

Home | Current Version | Previous Version | Text Only | Print | Product List | Glossary On
Versions: 1 2 3 4 5 6 7 8 9 10 11 12 13 14 15 16 17 18 19 20 21 22 23 24 25 26 27 28 29 30 31 32 33 34 35 36 37 38 39 40 41 42 43 44 45 46 47 48 49 50
000
ASUS44 KLIX 082013
RWRLA
LOUISIANA WEATHER ROUNDUP
NATIONAL WEATHER SERVICE NEW ORLEANS LA
200 PM CST THU DEC 08 2016

NOTE: "FAIR" INDICATES FEW OR NO CLOUDS BELOW 12,000 FEET WITH NO
      SIGNIFICANT WEATHER AND/OR OBSTRUCTIONS TO VISIBILITY.
      SKY/WX - SKY CONDITION AND SIGNIFICANT WEATHER.
      TMP - AIR TEMPERATURE.    DP   - DEWPOINT TEMPERATURE.
      RH  - RELATIVE HUMIDITY.  PRES - PRESSURE.
      HX  - HEAT INDEX.         WCI  - WIND CHILL INDEX.

*  THESE STATIONS ARE NOT NWS OR FAA STATIONS AND ARE NOT UNDER
   NWS QUALITY CONTROL.

LAZ040-048-061>063-065-066-069-082100-
SOUTHEAST LOUISIANA

CITY           SKY/WX    TMP DP  RH WIND       PRES   REMARKS
N.O. AUDUBON   NOT AVBL
N.O. INTL ARPT CLOUDY    51  42  71 N9        30.30F
N.O. LAKEFRONT CLOUDY    52  42  69 N21       30.31S
N.O. DOWNTOWN*   N/A     51  40  65 VRB7      30.31S
RESERVE*       CLOUDY    52  42  70 N9G17     30.32R
SLIDELL        CLOUDY    52  39  61 NE12G22   30.29F
BATON ROUGE    CLOUDY    51  42  71 N16G24    30.33F
BOOTHVILLE     CLOUDY    51  45  79 NE18G26   30.25F
BELLE CHASSE   CLOUDY    51  41  68 N12G21    30.29R
BOGALUSA*      NOT AVBL
GALLIANO*      NOT AVBL
NEW ROADS*     NOT AVBL
GONZALES*      NOT AVBL
HAMMOND*       NOT AVBL
HOUMA*         CLOUDY    50  43  76 N15       30.28S
PORT FOURCHON* NOT AVBL

$$

LAZ041-044-053-054-082100-
SOUTHWEST LOUISIANA

CITY           SKY/WX    TMP DP  RH WIND       PRES   REMARKS
LAKE CHARLES   CLOUDY    48  39  71 NE16G26   30.35F
LAFAYETTE      CLOUDY    48  40  73 N17       30.36R
PATTERSON      CLOUDY   N/A N/A N/A NE15      30.31R
SALT POINT     NOT AVBL
NEW IBERIA     RAIN      48  41  76 N16       30.34S
CHENAULT AIRPK NOT AVBL

$$

LAZ027-028-082100-
CENTRAL LOUISIANA

CITY           SKY/WX    TMP DP  RH WIND       PRES   REMARKS
FORT POLK      CLOUDY    44  31  58 N14       30.41F
ALEXANDRIA INT CLOUDY    47  30  51 N15G23    30.42S
ALEXANDRIA     CLOUDY    47  30  51 NE9G20    30.43R

$$

LAZ001-002-082100-
NORTHWEST LOUISIANA

CITY           SKY/WX    TMP DP  RH WIND       PRES   REMARKS
SHREVEPORT     NOT AVBL
BARKSDALE AFB  MOSUNNY   44  29  56 N10       30.50F
DTN SHREVEPORT CLOUDY    44  29  55 N13G20    30.51F

$$

LAZ014-016-082100-
NORTHEAST LOUISIANA

CITY           SKY/WX    TMP DP  RH WIND       PRES   REMARKS
MONROE         CLOUDY    45  26  47 N16G23    30.50R
TALLULAH       CLOUDY    45  30  55 N17       30.46F

$$




USA.gov is the U.S. government's official web portal to all federal, state and local government web resources and services.